Location: Brunembert
(50.7122°N, 1.8935°E)
Time: 04:28:24
(UTC+00:00)

Cosmos 1356 - Pass Details

Date: 22 April 2021
Orbit: 439 x 441 km, 81.1° (Epoch: 06 May)

Event Time Altitude Azimuth Distance (km) Brightness Sun altitude
Rises 19:58:39 0° 344° (NNW) 2,449 8.0 -9.2°
Reaches altitude 10° 20:00:45 10° 340° (NNW) 1,572 7.0 -9.5°
Maximum altitude 20:04:07 57° 262° (W) 526 4.0 -9.9°
Drops below altitude 10° 20:07:27 10° 182° (S) 1,556 5.8 -10.4°
Enters shadow 20:08:48 - 179° (S) 2,113 6.5 -10.5°
